Theta_e
320 319 317 317 316 319 322 322 324 323 323 323 326 326 319 316 320 316 319 323 322 320 319 317 315 315 315 318 318 317 318 318 319 317 319 316 316 316 318 322 325 326 323 323 334
319 318 317 316 316 317 320 322 324 323 322 322 323 325 324 315 316 316 320 322 320 320 316 316 320 325 321 320 321 318 317 318 316 316 316 316 316 316 318 321 322 324 325 323 333
319 318 317 316 316 315 319 320 322 322 322 320 320 325 326 320 315 316 318 319 320 320 321 320 322 320 318 319 319 316 320 316 318 315 315 315 316 316 316 316 320 321 324 323 331
319 319 318 316 315 315 319 320 323 322 321 320 322 325 325 326 327 324 320 316 318 320 319 320 317 325 319 318 317 319 315 316 319 320 315 314 315 315 316 318 319 319 321 323 327
320 319 317 316 315 315 319 321 323 322 321 320 321 324 320 323 324 323 325 319 315 318 318 316 317 320 321 317 315 315 314 316 319 316 314 314 314 314 314 317 317 319 322 322 322
319 319 317 315 315 315 318 321 322 321 321 320 322 322 321 320 323 317 324 314 313 313 314 314 315 317 317 316 316 315 315 314 318 315 314 313 313 313 316 317 316 318 321 322 322
317 316 317 315 316 315 318 322 321 321 320 322 323 322 319 321 321 317 322 318 310 312 312 313 314 316 314 314 315 314 314 315 315 313 313 313 312 311 316 315 316 320 322 323 323
318 317 316 315 315 316 319 323 322 320 320 320 320 317 316 321 321 318 319 315 311 311 312 313 315 316 316 316 317 317 317 317 314 311 313 313 312 313 315 315 316 321 324 324 324
315 316 316 315 315 316 321 322 321 320 318 320 317 316 318 317 320 318 317 317 313 315 315 316 314 313 315 315 317 319 322 319 320 311 311 310 312 313 315 314 316 320 323 324 325
314 317 316 315 315 317 319 320 317 316 318 315 315 315 314 313 315 313 316 319 317 318 316 317 317 310 309 319 325 319 324 320 322 315 310 310 309 311 312 313 315 317 322 324 324
313 317 316 315 316 317 319 316 319 318 316 315 315 311 312 313 311 314 318 319 317 316 317 313 315 315 311 313 311 314 319 325 313 316 311 312 313 311 312 309 310 314 319 322 322
310 314 315 314 316 317 319 317 317 317 312 312 315 309 309 311 311 314 316 316 317 319 315 314 316 314 311 310 312 309 313 315 315 309 309 310 309 309 308 309 311 312 314 318 319
308 311 316 314 316 317 318 319 317 315 311 309 312 309 309 310 311 313 313 312 315 314 317 319 315 313 313 313 311 310 310 309 313 309 308 309 310 310 309 309 311 311 313 314 316
306 308 314 314 315 317 318 317 315 315 311 310 311 311 309 310 310 313 313 311 308 312 310 311 312 315 311 313 311 312 309 310 309 310 310 307 311 310 310 307 306 311 311 313 315
304 305 312 314 316 316 316 316 315 314 318 309 309 310 309 311 309 310 312 310 307 307 308 311 309 311 312 313 311 312 311 310 310 310 307 306 306 308 305 306 307 308 312 313 315
304 304 308 314 315 315 315 315 310 311 313 309 308 307 308 307 308 309 310 309 310 308 307 308 307 307 309 309 309 309 309 308 306 308 311 308 307 307 307 309 307 308 312 315 315
305 304 306 310 315 315 314 310 309 313 306 307 307 308 308 306 307 308 309 307 308 308 309 307 307 306 307 308 306 310 311 312 311 309 313 305 305 311 307 304 305 307 312 314 314
306 304 305 307 315 314 310 309 312 308 305 305 307 308 308 307 307 306 309 309 304 306 307 310 310 306 305 307 307 308 310 311 310 309 311 303 307 311 305 309 308 307 308 309 310
305 307 304 307 311 311 309 313 311 308 305 307 307 309 306 308 306 307 309 310 308 304 308 307 308 305 305 305 308 306 308 307 306 295 303 304 304 304 303 304 304 306 307 309 311
305 306 306 305 310 311 311 313 306 305 306 307 308 308 308 308 307 307 309 309 308 304 305 306 308 306 306 306 306 306 307 309 306 305 303 305 305 309 306 307 305 304 307 310 310
304 307 308 307 311 310 312 311 305 306 307 307 306 306 306 308 306 308 308 307 308 304 304 304 306 307 306 306 306 305 306 306 307 306 308 308 308 302 306 306 306 306 308 308 310
304 305 309 308 311 307 308 309 306 305 307 305 305 304 306 307 305 307 306 308 309 307 307 305 305 306 306 306 305 306 307 308 309 308 304 306 309 303 302 302 304 306 307 308 308
303 304 307 308 308 306 307 310 307 305 305 305 306 305 305 306 305 304 304 305 307 307 308 306 307 302 307 308 306 306 305 308 308 305 308 307 311 302 303 303 306 306 306 308 309
301 304 303 306 308 306 308 310 308 307 306 305 305 305 306 306 306 306 305 305 307 308 308 308 308 307 309 308 307 308 306 305 307 309 309 306 309 306 306 304 306 307 307 308 308
299 299 299 305 307 305 308 309 309 309 307 306 305 306 306 306 306 306 306 308 306 307 308 309 310 306 307 306 308 308 308 306 306 308 308 309 307 305 305 305 306 308 307 308 309
298 298 299 297 300 307 308 309 309 308 308 307 306 305 304 305 307 305 307 306 306 307 306 305 303 305 305 308 307 308 308 308 309 308 307 308 306 305 305 307 307 308 307 307 309
297 298 299 299 302 305 308 309 309 308 306 307 305 305 305 305 307 307 308 307 306 307 307 306 303 301 302 307 308 309 308 308 308 308 308 307 309 303 304 304 307 308 308 308 309
Wind_Speed
57 53 52 47 42 52 46 40 35 32 30 29 28 32 27 25 24 24 23 18 17 15 19 19 15 13 12 10 8 7 3 4 4 4 4 2 4 4 7 10 8 8 3 4 25
55 54 52 49 47 52 50 43 37 33 32 31 30 31 32 26 25 26 22 22 22 17 19 18 18 15 7 3 5 4 3 7 3 2 3 3 3 9 6 9 8 9 7 10 26
61 56 50 49 46 45 53 44 40 36 34 30 29 28 31 30 17 22 26 27 24 20 19 18 19 18 6 5 4 3 5 5 7 3 5 6 5 8 8 3 13 19 17 20 29
57 53 49 47 46 45 52 48 41 41 35 31 30 29 26 28 10 12 29 25 24 22 19 20 17 15 5 5 7 4 8 6 4 5 6 5 8 6 16 9 13 16 18 24 31
54 54 49 46 46 49 52 48 44 40 37 32 31 29 29 25 13 3 23 27 24 24 23 24 24 14 8 10 8 5 6 10 13 9 12 9 14 10 15 12 6 15 21 24 28
49 52 47 46 46 49 53 44 44 41 37 33 33 31 30 13 19 6 17 31 27 26 25 26 21 15 9 8 10 9 8 6 14 18 9 7 4 5 8 18 10 16 23 27 29
57 54 47 47 47 47 54 42 44 41 36 32 33 32 28 20 17 10 13 36 27 26 25 18 16 16 10 5 6 6 1 4 12 5 4 4 6 8 15 13 14 19 25 28 30
43 49 48 46 45 49 50 44 45 40 34 32 29 28 9 29 10 16 17 36 28 22 22 17 19 16 7 12 5 5 2 6 3 8 3 5 9 13 15 14 17 21 26 29 30
25 46 45 42 44 50 46 47 44 39 33 32 33 18 5 13 22 20 18 38 32 23 13 8 13 7 8 7 3 2 4 9 6 8 4 6 6 11 14 17 19 24 29 30 30
29 43 46 44 47 50 45 42 37 36 34 32 20 10 12 17 24 22 23 29 31 22 13 7 5 4 2 8 9 6 11 4 13 5 5 6 8 11 9 19 25 25 29 31 32
20 40 46 45 49 49 47 51 41 18 42 10 24 5 20 23 23 22 22 29 26 23 8 4 3 15 9 8 3 5 4 15 4 7 5 11 14 10 17 14 20 23 28 33 34
15 21 46 46 48 49 48 31 38 22 14 10 27 11 21 31 16 28 28 15 19 13 9 3 17 8 7 4 5 4 4 4 4 3 4 4 10 9 8 11 23 31 31 35 35
30 11 40 46 47 50 53 31 28 46 9 4 29 13 23 23 13 29 31 16 16 11 16 12 3 10 7 3 5 5 4 2 4 1 3 2 9 10 7 18 24 22 34 33 35
21 11 29 46 48 50 42 34 26 32 5 7 11 8 15 15 6 28 29 19 5 12 11 5 6 20 8 16 9 8 6 3 2 2 4 2 5 12 11 11 12 32 26 35 35
13 19 17 49 41 54 40 35 31 24 6 13 7 12 20 19 23 21 28 6 9 7 8 7 10 11 17 11 11 4 7 6 4 3 4 4 4 5 6 10 12 18 31 31 36
14 16 17 34 38 45 42 44 26 3 5 10 11 9 10 4 4 20 26 5 14 6 2 6 5 11 8 8 12 9 6 6 5 3 3 9 6 5 8 13 4 16 34 38 37
16 18 21 16 43 49 49 36 6 6 6 8 7 13 18 6 4 7 15 8 7 7 8 3 3 2 8 6 4 12 14 2 2 2 12 3 5 17 7 7 7 12 32 37 41
17 20 18 21 36 55 51 11 7 11 9 5 9 18 12 13 3 4 14 13 8 6 8 10 8 11 5 6 5 12 15 7 7 4 7 4 8 10 11 21 17 18 19 20 27
17 20 23 25 38 61 40 17 11 13 10 10 15 20 6 13 8 8 19 23 17 12 9 6 7 3 4 4 12 5 11 5 5 1 3 5 9 8 9 10 12 21 21 25 24
14 16 29 28 37 58 18 18 4 7 12 20 8 15 17 23 7 13 19 20 16 11 2 5 3 1 2 5 1 9 10 4 1 2 5 5 5 9 3 11 11 10 25 29 23
13 7 14 31 43 35 19 13 5 9 25 9 7 8 11 18 9 17 18 2 20 10 4 6 4 0 6 8 9 3 5 4 4 6 6 8 8 8 11 11 12 15 28 27 28
7 2 15 33 10 9 12 7 7 7 8 5 6 5 17 19 6 15 15 12 26 20 12 6 6 4 8 2 2 2 7 15 6 13 5 2 11 3 8 7 13 21 23 21 22
6 3 12 40 5 10 5 4 3 8 9 7 4 4 6 13 5 6 7 9 27 20 21 9 3 3 5 3 3 7 7 12 15 3 12 7 18 4 6 6 11 14 16 18 21
4 2 1 12 2 8 8 18 7 3 5 5 6 7 10 10 2 13 8 6 24 24 17 20 4 9 13 9 7 3 3 3 10 11 16 7 20 6 5 8 8 11 11 15 23
2 1 2 2 11 8 12 14 18 7 2 8 3 14 11 6 15 7 6 3 3 16 9 11 18 6 1 6 8 9 9 8 7 15 8 25 15 8 11 8 9 13 12 17 23
3 3 2 1 2 10 17 12 29 10 11 12 11 13 8 9 16 8 10 7 8 2 9 1 3 5 1 3 5 5 13 13 16 20 14 22 20 5 2 8 11 14 14 22 27
3 2 1 1 2 4 12 18 28 15 3 12 11 10 10 8 21 17 18 15 13 12 12 8 6 4 7 3 3 4 14 15 12 18 16 16 21 5 6 9 22 22 20 23 26
Wind_Direction
216 217 216 214 217 202 202 202 202 197 200 201 195 197 192 194 192 191 192 200 193 185 184 177 161 147 155 178 153 144 90 155 200 170 266 195 184 163 172 153 172 199 190 193 172
216 212 214 212 211 202 200 199 201 196 195 196 197 200 199 190 195 204 194 202 196 181 184 186 188 193 156 159 156 121 130 193 198 216 307 280 224 172 167 166 207 206 197 173 178
210 207 210 207 210 206 198 198 202 194 192 192 204 201 198 194 207 222 197 194 200 195 195 198 204 167 165 160 178 161 188 186 230 325 352 296 247 197 159 216 210 203 190 174 181
202 204 205 203 205 204 195 197 198 193 189 191 198 196 189 189 196 238 205 194 198 192 186 195 194 173 149 156 178 160 195 198 246 284 321 310 300 225 203 214 234 221 210 184 187
210 204 202 199 200 198 193 193 193 191 186 193 202 186 178 185 201 236 192 193 190 186 187 191 179 170 169 176 157 188 180 210 254 303 314 283 252 241 235 220 232 208 204 197 199
204 201 199 197 195 195 192 194 196 192 186 194 196 182 179 186 208 213 186 183 189 184 182 193 198 179 171 177 180 207 186 181 238 247 291 274 263 197 253 214 222 207 207 203 205
199 206 198 198 194 191 190 192 193 191 186 187 187 181 183 184 206 200 195 184 184 180 179 185 188 180 148 133 158 114 174 218 237 196 258 316 280 214 236 213 214 205 207 206 208
178 184 194 194 192 190 186 185 187 183 183 183 180 178 191 201 193 195 184 182 178 172 187 186 192 176 167 127 85 131 132 224 188 163 234 148 274 269 226 209 212 209 208 209 210
186 190 192 191 186 186 186 185 180 179 178 179 175 173 198 205 211 196 188 189 185 183 182 172 167 154 147 113 85 249 207 217 298 203 142 169 270 268 233 214 214 215 213 213 216
203 189 192 188 180 185 185 173 165 159 166 166 172 159 196 187 179 179 182 191 179 176 167 178 166 135 142 172 205 186 208 216 224 213 194 215 239 282 266 218 221 219 218 219 220
194 175 190 184 180 182 179 157 149 159 157 170 175 144 150 168 172 173 168 169 166 171 176 150 180 199 175 187 87 159 180 233 250 213 201 237 233 238 259 241 238 230 224 224 226
206 165 187 184 180 179 177 161 162 166 128 148 168 124 155 162 144 164 160 146 159 178 128 67 224 181 162 125 195 160 182 246 295 301 189 279 252 241 220 236 238 234 231 230 232
213 175 181 182 178 177 180 174 164 152 115 110 163 128 157 164 154 164 170 141 150 150 176 203 164 191 198 180 197 216 180 155 241 293 249 342 259 245 249 234 246 246 239 240 237
215 203 173 178 176 175 174 176 161 151 90 162 179 168 156 150 134 170 175 141 156 165 158 210 201 187 174 219 178 214 148 129 45 311 245 202 278 227 226 232 222 235 237 236 236
245 217 171 182 174 178 168 162 155 156 170 151 159 157 161 163 141 186 174 154 151 152 144 207 173 179 207 199 177 170 147 166 159 101 359 230 267 242 167 238 235 229 237 240 237
222 235 181 188 179 174 161 152 149 98 193 185 144 151 139 180 148 150 177 164 146 120 86 191 188 169 189 172 184 142 59 32 41 109 246 216 196 230 213 229 231 231 237 239 242
213 245 214 198 173 170 163 156 114 185 142 181 168 164 162 145 110 153 178 158 155 134 186 92 214 238 165 142 127 163 153 174 212 219 236 148 167 243 261 238 229 219 237 238 240
198 223 229 211 174 165 155 148 171 170 185 139 134 143 169 135 173 157 157 185 227 144 139 170 207 180 187 187 167 191 183 160 197 223 251 82 227 247 218 249 238 248 250 252 246
196 202 235 219 176 167 151 176 198 175 144 125 118 153 140 185 140 147 190 198 189 178 158 145 241 35 161 150 156 196 208 186 108 33 50 206 272 300 249 265 253 250 252 249 252
187 198 215 225 180 164 166 188 155 143 117 139 149 184 175 179 143 183 184 202 195 178 39 189 130 187 118 106 168 172 158 174 146 206 258 273 265 219 240 226 239 241 243 247 245
179 191 210 213 170 168 186 177 128 158 138 142 155 159 172 181 166 186 191 251 188 159 126 154 115 30 122 202 174 149 173 196 166 164 217 254 258 213 215 223 236 238 249 250 230
170 209 190 193 181 180 181 175 135 143 144 121 105 95 174 172 155 194 203 196 187 168 189 185 124 157 207 290 92 231 190 198 198 218 230 186 259 215 245 263 281 275 273 264 240
178 227 199 182 179 180 162 198 148 147 162 151 129 138 142 163 177 188 173 193 181 173 188 167 183 78 10 2 238 196 209 204 211 82 213 202 256 200 239 244 257 279 271 247 222
154 159 210 186 232 160 176 192 182 139 141 137 128 113 120 170 178 186 179 194 185 195 179 157 123 171 215 233 128 199 206 244 198 220 231 228 252 296 283 264 302 282 265 238 220
110 75 35 178 211 162 168 187 188 160 163 145 75 163 153 138 190 184 156 101 154 194 157 167 207 164 277 227 188 186 188 189 201 227 197 246 248 216 247 266 263 272 255 226 218
120 130 131 333 15 196 183 192 190 189 159 197 160 172 158 158 193 159 145 171 170 129 171 323 227 115 189 327 163 188 203 201 212 230 237 251 258 148 187 238 242 239 233 231 224
178 160 223 62 14 207 198 190 204 179 290 192 141 148 179 192 182 184 171 156 162 169 181 156 132 108 239 135 155 269 210 201 214 218 223 236 243 156 225 244 243 236 227 234 237